• In Russia
  • List of Countries
  • For 7 days
  • Water Temperature
  • Satellite Maps
  • Weather Map
  • Weather Widgets
  • user-avatar
    Login

    Hourly Weather Barra

    Today, 22 May, Monday

    Time Temperature Precipitation Wind Pressure Humidity
    00:00 +20°C° 0 mm 3 mps 750 mmHg 96%
    01:00 +20°C° 0 mm 3 mps 750 mmHg 95%
    02:00 +20°C° 0 mm 3 mps 750 mmHg 95%
    03:00 +20°C° 0 mm 3 mps 750 mmHg 95%
    04:00 +20°C° 0 mm 3 mps 750 mmHg 95%
    05:00 +20°C° 0 mm 3 mps 750 mmHg 96%
    06:00 +20°C° 0 mm 3 mps 750 mmHg 96%
    07:00 +20°C° 0 mm 3 mps 751 mmHg 97%
    08:00 +21°C° 0 mm 3 mps 751 mmHg 89%
    09:00 +24°C° 0 mm 3 mps 751 mmHg 80%
    10:00 +26°C° 0 mm 3 mps 751 mmHg 70%
    11:00 +27°C° 0 mm 3 mps 751 mmHg 67%
    12:00 +28°C° 0 mm 3 mps 750 mmHg 64%
    13:00 +28°C° 0 mm 3 mps 750 mmHg 60%
    14:00 +28°C° 0 mm 3 mps 750 mmHg 63%
    15:00 +27°C° 0 mm 3 mps 750 mmHg 66%
    16:00 +26°C° 0 mm 3 mps 749 mmHg 71%
    17:00 +24°C° 0 mm 3 mps 749 mmHg 79%
    18:00 +21°C° 0 mm 2 mps 750 mmHg 87%
    19:00 +19°C° 0 mm 2 mps 750 mmHg 96%
    20:00 +19°C° 0 mm 3 mps 750 mmHg 95%
    21:00 +19°C° 0 mm 3 mps 751 mmHg 95%
    22:00 +20°C° 0 mm 3 mps 751 mmHg 94%
    23:00 +20°C° 0.1 mm 3 mps 751 mmHg 94%

    Tomorrow, 23 May, Tuesday

    Time Temperature Precipitation Wind Pressure Humidity
    00:00 +20°C° 0.1 mm 3 mps 751 mmHg 94%
    01:00 +20°C° 0.1 mm 4 mps 751 mmHg 94%
    02:00 +21°C° 0.2 mm 4 mps 750 mmHg 94%
    03:00 +21°C° 0.2 mm 4 mps 750 mmHg 94%
    04:00 +21°C° 0.2 mm 4 mps 750 mmHg 94%
    05:00 +21°C° 0.2 mm 4 mps 750 mmHg 95%
    06:00 +21°C° 0.2 mm 4 mps 751 mmHg 96%
    07:00 +21°C° 0.2 mm 4 mps 751 mmHg 97%
    08:00 +22°C° 0.2 mm 4 mps 751 mmHg 94%
    09:00 +23°C° 0.2 mm 4 mps 751 mmHg 92%
    10:00 +25°C° 0.2 mm 5 mps 751 mmHg 90%
    11:00 +25°C° 0.2 mm 5 mps 751 mmHg 87%
    12:00 +26°C° 0.2 mm 5 mps 750 mmHg 85%
    13:00 +26°C° 0.2 mm 5 mps 750 mmHg 83%
    14:00 +26°C° 0.2 mm 5 mps 750 mmHg 84%
    15:00 +26°C° 0.2 mm 5 mps 750 mmHg 86%
    16:00 +25°C° 0.2 mm 5 mps 749 mmHg 87%
    17:00 +25°C° 0.3 mm 5 mps 750 mmHg 90%
    18:00 +23°C° 0.3 mm 5 mps 750 mmHg 93%
    19:00 +22°C° 0.3 mm 5 mps 750 mmHg 96%
    20:00 +22°C° 0.4 mm 5 mps 751 mmHg 96%
    21:00 +22°C° 0.4 mm 5 mps 751 mmHg 97%
    22:00 +22°C° 0.4 mm 5 mps 751 mmHg 97%
    23:00 +22°C° 0.6 mm 5 mps 751 mmHg 97%

    Day after tomorrow, 24 May, Wednesday

    Time Temperature Precipitation Wind Pressure Humidity
    00:00 +22°C° 0.6 mm 5 mps 751 mmHg 97%
    01:00 +22°C° 0.6 mm 5 mps 751 mmHg 96%
    02:00 +21°C° 0.2 mm 5 mps 751 mmHg 96%
    03:00 +21°C° 0.2 mm 5 mps 751 mmHg 97%
    04:00 +21°C° 0.2 mm 5 mps 751 mmHg 97%
    05:00 +21°C° 0.1 mm 5 mps 751 mmHg 97%
    06:00 +20°C° 0.1 mm 5 mps 751 mmHg 96%
    07:00 +20°C° 0.1 mm 5 mps 752 mmHg 96%
    08:00 +21°C° 0 mm 5 mps 752 mmHg 92%
    09:00 +22°C° 0 mm 5 mps 752 mmHg 88%
    10:00 +25°C° 0 mm 5 mps 753 mmHg 84%
    11:00 +25°C° 0 mm 5 mps 752 mmHg 81%
    12:00 +25°C° 0 mm 5 mps 752 mmHg 78%
    13:00 +26°C° 0 mm 5 mps 751 mmHg 75%
    14:00 +26°C° 0 mm 5 mps 751 mmHg 75%
    15:00 +26°C° 0 mm 5 mps 750 mmHg 75%
    16:00 +26°C° 0 mm 5 mps 750 mmHg 76%
    17:00 +23°C° 0 mm 4 mps 750 mmHg 82%
    18:00 +22°C° 0 mm 4 mps 751 mmHg 87%
    19:00 +20°C° 0 mm 4 mps 751 mmHg 93%
    20:00 +20°C° 0 mm 4 mps 751 mmHg 94%
    21:00 +20°C° 0 mm 4 mps 752 mmHg 94%
    22:00 +20°C° 0 mm 4 mps 752 mmHg 94%
    23:00 +20°C° 0 mm 4 mps 752 mmHg 94%

    25 May, Thursday

    Time Temperature Precipitation Wind Pressure Humidity
    00:00 +20°C° 0 mm 4 mps 751 mmHg 94%
    01:00 +20°C° 0 mm 4 mps 751 mmHg 94%
    02:00 +19°C° 0 mm 4 mps 751 mmHg 94%
    03:00 +19°C° 0 mm 4 mps 751 mmHg 94%
    04:00 +18°C° 0 mm 4 mps 750 mmHg 94%
    05:00 +18°C° 0 mm 4 mps 751 mmHg 92%
    06:00 +18°C° 0 mm 4 mps 751 mmHg 90%
    07:00 +17°C° 0 mm 4 mps 751 mmHg 88%
    08:00 +19°C° 0 mm 4 mps 752 mmHg 80%
    09:00 +21°C° 0 mm 5 mps 752 mmHg 71%
    10:00 +23°C° 0 mm 5 mps 752 mmHg 63%
    11:00 +25°C° 0 mm 5 mps 752 mmHg 62%
    12:00 +26°C° 0 mm 5 mps 751 mmHg 61%
    13:00 +26°C° 0 mm 5 mps 751 mmHg 60%
    14:00 +26°C° 0 mm 5 mps 751 mmHg 62%
    15:00 +26°C° 0 mm 5 mps 750 mmHg 65%
    16:00 +25°C° 0 mm 5 mps 750 mmHg 68%
    17:00 +22°C° 0 mm 4 mps 750 mmHg 75%
    18:00 +21°C° 0 mm 4 mps 751 mmHg 83%
    19:00 +19°C° 0 mm 4 mps 751 mmHg 90%
    20:00 +19°C° 0 mm 4 mps 751 mmHg 90%
    21:00 +19°C° 0 mm 4 mps 752 mmHg 91%
    22:00 +19°C° 0 mm 4 mps 752 mmHg 91%
    23:00 +19°C° 0 mm 4 mps 752 mmHg 91%

    26 May, Friday

    Time Temperature Precipitation Wind Pressure Humidity
    00:00 +19°C° 0 mm 4 mps 751 mmHg 91%
    01:00 +19°C° 0 mm 4 mps 751 mmHg 90%
    02:00 +19°C° 0 mm 4 mps 751 mmHg 91%
    03:00 +19°C° 0 mm 4 mps 751 mmHg 91%
    04:00 +19°C° 0 mm 4 mps 750 mmHg 91%
    05:00 +19°C° 0 mm 4 mps 751 mmHg 91%
    06:00 +19°C° 0 mm 4 mps 751 mmHg 91%
    07:00 +19°C° 0 mm 4 mps 751 mmHg 91%
    08:00 +20°C° 0 mm 4 mps 752 mmHg 87%
    09:00 +22°C° 0 mm 4 mps 752 mmHg 82%
    10:00 +23°C° 0 mm 4 mps 752 mmHg 77%
    11:00 +25°C° 0 mm 5 mps 752 mmHg 73%
    12:00 +25°C° 0 mm 5 mps 751 mmHg 69%
    13:00 +26°C° 0 mm 5 mps 751 mmHg 65%
    14:00 +26°C° 0 mm 5 mps 750 mmHg 66%
    15:00 +25°C° 0 mm 5 mps 750 mmHg 68%
    16:00 +25°C° 0 mm 5 mps 750 mmHg 69%
    17:00 +22°C° 0 mm 4 mps 750 mmHg 76%
    18:00 +21°C° 0 mm 4 mps 751 mmHg 83%
    19:00 +19°C° 0 mm 4 mps 751 mmHg 90%
    20:00 +19°C° 0 mm 4 mps 752 mmHg 89%
    21:00 +20°C° 0 mm 4 mps 752 mmHg 89%
    22:00 +20°C° 0 mm 4 mps 752 mmHg 88%
    23:00 +20°C° 0 mm 4 mps 752 mmHg 88%

    27 May, Saturday

    Time Temperature Precipitation Wind Pressure Humidity
    00:00 +20°C° 0 mm 4 mps 752 mmHg 89%
    01:00 +20°C° 0 mm 4 mps 751 mmHg 89%
    02:00 +20°C° 0 mm 4 mps 751 mmHg 89%
    03:00 +20°C° 0 mm 4 mps 751 mmHg 90%
    04:00 +20°C° 0 mm 4 mps 751 mmHg 91%
    05:00 +20°C° 0 mm 4 mps 751 mmHg 91%
    06:00 +19°C° 0 mm 4 mps 752 mmHg 92%
    07:00 +19°C° 0 mm 4 mps 752 mmHg 93%
    08:00 +20°C° 0.1 mm 4 mps 752 mmHg 87%
    09:00 +22°C° 0.1 mm 4 mps 752 mmHg 82%
    10:00 +23°C° 0.1 mm 4 mps 752 mmHg 76%
    11:00 +25°C° 0 mm 4 mps 752 mmHg 74%
    12:00 +25°C° 0 mm 4 mps 751 mmHg 71%
    13:00 +26°C° 0 mm 5 mps 751 mmHg 69%
    14:00 +25°C° 0 mm 4 mps 750 mmHg 71%
    15:00 +25°C° 0 mm 4 mps 750 mmHg 73%
    16:00 +25°C° 0 mm 4 mps 750 mmHg 75%
    17:00 +22°C° 0 mm 4 mps 750 mmHg 81%
    18:00 +20°C° 0 mm 4 mps 751 mmHg 88%
    19:00 +19°C° 0 mm 3 mps 751 mmHg 94%
    20:00 +19°C° 0 mm 3 mps 752 mmHg 95%
    21:00 +19°C° 0 mm 3 mps 752 mmHg 95%
    22:00 +18°C° 0 mm 3 mps 752 mmHg 95%
    23:00 +19°C° 0 mm 3 mps 752 mmHg 95%
    Show more